Oak Ridge, TN

3:03 PM EST on February 19, 2017 (GMT -0500)
Oak Ridge

Weather History for KOQT - October, 2011

Change the Weather History Date:

Saturday, October 29, 2011

  Actual Average (KTYS) Record (KTYS)
Temperature  
Mean Temperature 47 °F -  
Max Temperature 57 °F 66 °F 83 °F (1919)
Min Temperature 37 °F 43 °F 25 °F (1873)
Degree Days  
Heating Degree Days 18    
Moisture  
Dew Point 35 °F    
Average Humidity 75    
Maximum Humidity 93    
Minimum Humidity 34    
Precipitation  
Precipitation 0.05 in - - ()
Sea Level Pressure  
Sea Level Pressure 30.14 in    
Wind  
Wind Speed 1 mph (NE)    
Max Wind Speed 7 mph    
Max Gust Speed -    
Visibility 9 miles    
Events Rain    
Averages and records for this station are not official NWS values.
T = Trace of Precipitation, MM = Missing Value Source: NWS Daily Summary

Daily Weather History Graph

Daily Weather History Graph

Search for Another Location

Airport or City:

Trip Planner

Search our weather history database for the weather conditions in past years. The results will help you decide how hot, cold, wet, or windy it might be!

Date:

Astronomy

Oct. 29, 2011 Rise Set
Actual Time 7:56 AM EDT 6:44 PM EDT
Civil Twilight 7:29 AM EDT 7:10 PM EDT
Nautical Twilight 6:59 AM EDT 7:40 PM EDT
Astronomical Twilight 6:29 AM EDT 8:10 PM EDT
Moon 11:11 AM EDT (10/29) 9:12 PM EDT (10/29)
Length of Visible Light 11h 40m
Length of Day
10h 48m
Waxing Crescent, 11% of the Moon is Illuminated
Oct 29
Waxing Crescent
Nov 2
First Quarter
Nov 10
Full
Nov 18
Last Quarter
Nov 25
New

Hourly Weather History & Observations

Time (EDT) Temp. Windchill Dew Point Humidity Pressure Visibility Wind Dir Wind Speed Gust Speed Precip Events Conditions
12:15 AM 42.8 °F - 39.2 °F 87% 30.05 in 5.0 mi Calm Calm - 0.00 in Rain Light Rain
12:23 AM 42.8 °F - 39.2 °F 87% 30.06 in 4.0 mi Calm Calm - 0.00 in Rain Light Rain
12:36 AM 42.8 °F - 39.2 °F 87% 30.05 in 4.0 mi Calm Calm - 0.01 in Rain Light Rain
12:53 AM 42.1 °F - 39.9 °F 92% 30.08 in 4.0 mi Calm Calm - 0.01 in Rain Light Rain
1:26 AM 42.8 °F 41.1 °F 39.2 °F 87% 30.05 in 4.0 mi ENE 3.5 mph - 0.02 in Rain Light Rain
1:53 AM 41.0 °F - 39.0 °F 93% 30.08 in 10.0 mi Calm Calm - 0.02 in Rain Light Rain
2:53 AM 41.0 °F - 37.9 °F 89% 30.09 in 10.0 mi Calm Calm - 0.01 in Rain Light Rain
3:26 AM 42.8 °F - 37.4 °F 81% 30.08 in 7.0 mi Calm Calm - 0.00 in Rain Light Rain
3:33 AM 41.0 °F - 37.4 °F 87% 30.08 in 6.0 mi Calm Calm - 0.00 in Rain Light Rain
3:53 AM 41.0 °F - 37.9 °F 89% 30.11 in 10.0 mi Calm Calm - 0.01 in   Overcast
4:53 AM 39.9 °F - 36.0 °F 86% 30.11 in 10.0 mi Calm Calm - N/A   Scattered Clouds
5:53 AM 39.0 °F - 36.0 °F 89% 30.14 in 10.0 mi Calm Calm - N/A   Scattered Clouds
6:00 AM 39.2 °F - 37.4 °F 93% 30.11 in 10.0 mi Calm Calm - N/A   Mostly Cloudy
6:53 AM 41.0 °F - 36.0 °F 82% 30.15 in 10.0 mi Calm Calm - N/A   Mostly Cloudy
7:10 AM 39.2 °F - 35.6 °F 87% 30.13 in 10.0 mi Calm Calm - N/A   Scattered Clouds
7:53 AM 39.9 °F 36.7 °F 33.1 °F 77% 30.17 in 10.0 mi NNW 4.6 mph - N/A   Clear
8:53 AM 39.0 °F - 36.0 °F 89% 30.18 in 10.0 mi Calm Calm - N/A   Clear
9:53 AM 42.1 °F 39.2 °F 36.0 °F 79% 30.18 in 10.0 mi ENE 4.6 mph - N/A   Clear
10:53 AM 45.0 °F 41.2 °F 36.0 °F 71% 30.17 in 10.0 mi NE 6.9 mph - N/A   Clear
11:53 AM 48.0 °F - 35.1 °F 61% 30.19 in 10.0 mi ENE 5.8 mph - N/A   Clear
12:53 PM 48.9 °F - 34.0 °F 56% 30.18 in 10.0 mi Calm Calm - N/A   Overcast
1:53 PM 53.1 °F - 32.0 °F 45% 30.17 in 10.0 mi Variable 5.8 mph - N/A   Mostly Cloudy
2:53 PM 57.0 °F - 28.9 °F 34% 30.15 in 10.0 mi Variable 4.6 mph - N/A   Clear
3:53 PM 55.9 °F - 28.9 °F 36% 30.14 in 10.0 mi Variable 3.5 mph - N/A   Partly Cloudy
4:53 PM 55.9 °F - 28.0 °F 34% 30.14 in 10.0 mi Variable 3.5 mph - N/A   Clear
5:53 PM 54.0 °F - 28.0 °F 37% 30.15 in 10.0 mi North 3.5 mph - N/A   Clear
6:53 PM 50.0 °F - 30.9 °F 48% 30.16 in 10.0 mi Calm Calm - N/A   Clear
7:53 PM 45.0 °F - 34.0 °F 65% 30.19 in 10.0 mi Calm Calm - N/A   Clear
8:53 PM 41.0 °F - 35.1 °F 79% 30.21 in 10.0 mi Calm Calm - N/A   Clear
9:53 PM 39.0 °F - 34.0 °F 82% 30.21 in 10.0 mi Calm Calm - N/A   Clear
10:53 PM 37.9 °F - 34.0 °F 86% 30.22 in 10.0 mi Calm Calm - N/A   Clear
11:53 PM 37.0 °F - 34.0 °F 89% 30.22 in 10.0 mi Calm Calm - N/A   Clear